User: anonymous   Login
Location: Cassano d�Adda
(45.5333°N, 9.5167°E)
Time: 00:24:47
(UTC+00:00)
Language:

ATLAS 2AS CENTAUR R/B - Orbit

View from above orbital plane
View from above orbital plane
View from above satellite
View from above satellite

Ground track
Ground track

The orbit data is extracted from the following two-line orbital elements,

1 28096U 03054B   20039.13243479 0.00000000  00000-0  00000-0 0    07
2 28096  63.6712 136.4814 0236752 232.8099 127.1900 13.40855570    05
Epoch (UTC): 08 February 2020 03:10:42
Eccentricity: 0.0236752
inclination: 63.6712°
perigee height: 929 km
apogee height: 1283 km
right ascension of ascending node: 136.4814°
argument of perigee: 232.8099°
revolutions per day: 13.40855570
mean anomaly at epoch: 127.1900°
orbit number at epoch: 0

The dashed part of the orbit path shows where the satellite is in the earth's shadow,  

DLR